United States

Ashburn, VA Weather Archive

Below you will find the last 24 hours of weather readings for Ashburn VA

Ashburn VA Today's Weather Data

Observed at: Ashburn, VA

Hour Observerd Temp Pressure Visibility Humidity Dew Point Wind
07:00 Fair 45°F (7.2°C) 101.15 kPa 10 miles 80% 39.2°F (4°C) 1 mph NW 326°
06:00 Partly Cloudy 44°F (6.7°C) 101.15 kPa 10 miles 82% 38.9°F (3.8°C) 1 mph WSW 239°
05:00 Mostly Cloudy 43°F (6.1°C) 101.22 kPa 10 miles 82% 37.9°F (3.3°C) 1 mph NW 315°2 mph
04:00 Fair 43°F (6.1°C) 101.22 kPa 10 miles 80% 37.3°F (2.9°C) 1 mph SW 225°2 mph
03:00 Fair 46°F (7.8°C) 101.29 kPa 10 miles 75% 38.5°F (3.6°C) 1 mph W 270°
02:00 Partly Cloudy 47°F (8.3°C) 101.46 kPa 10 miles 73% 38.8°F (3.8°C) 1 mph W 270°2 mph
01:00 Partly Cloudy 49°F (9.4°C) 101.46 kPa 10 miles 70% 39.7°F (4.3°C) 1 mph W 270°2 mph
00:00 Mostly Cloudy 50°F (10°C) 101.49 kPa 10 miles 68% 39.9°F (4.4°C) 1 mph S 188°4 mph
23:00 Mostly Cloudy 49°F (9.4°C) 101.52 kPa 10 miles 69% 39.3°F (4°C) 1 mph W 270°2 mph
22:00 Overcast 49°F (9.4°C) 101.59 kPa 10 miles 68% 38.9°F (3.8°C) 1 mph SSW 209°3 mph
21:00 Overcast 49°F (9.4°C) 101.66 kPa 10 miles 67% 38.5°F (3.6°C) 1 mph SW 231°2 mph
20:00 Mostly Cloudy 49°F (9.4°C) 101.83 kPa 10 miles 65% 37.8°F (3.2°C) 1 mph WSW 240°2 mph
19:00 Fair 49°F (9.4°C) 101.93 kPa 10 miles 66% 38.1°F (3.4°C) 1 mph S 183°3 mph
18:00 Fair 51°F (10.6°C) 101.96 kPa 10 miles 63% 38.9°F (3.8°C) 1 mph W 270°3 mph
17:00 Fair 52°F (11.1°C) 102 kPa 10 miles 60% 38.6°F (3.6°C) 1 mph SW 225°2 mph
16:00 Fair 55°F (12.8°C) 102.07 kPa 10 miles 57% 40°F (4.5°C) 1 mph SW 225°2 mph
15:00 Fair 57°F (13.9°C) 102.07 kPa 10 miles 54% 40.5°F (4.7°C) 1 mph W 270°2 mph
14:00 Fair 55°F (12.8°C) 102.13 kPa 10 miles 57% 40°F (4.5°C) 1 mph SW 233°2 mph
13:00 Fair 52°F (11.1°C) 102.27 kPa 10 miles 59% 38.1°F (3.4°C) 1 mph SSE 150°3 mph
12:00 Fair 52°F (11.1°C) 102.27 kPa 10 miles 61% 39°F (3.9°C) 1 mph S 175°2 mph
11:00 Fair 43°F (6.1°C) 102.51 kPa 10 miles 73% 35°F (1.6°C) 1 mph ENE 64°2 mph
10:00 Fair 42°F (5.6°C) 102.57 kPa 10 miles 74% 34.3°F (1.3°C) 1 mph E 90°2 mph
09:00 Fair 38°F (3.3°C) 102.61 kPa 10 miles 80% 32.4°F (0.2°C) 1 mph SW 225°2 mph
08:00 Fair 37°F (2.8°C) 102.57 kPa 10 miles 79% 31.1°F (-0.5°C) 1 mph NNW 333°